Regional Weather Roundup
Issued by NWS

Home | Current Version | Previous Version | Graphics & Text | Print | Product List | Glossary On
Versions: 1 2 3 4 5 6 7 8 9 10 11 12 13 14 15 16 17 18 19 20 21 22 23 24 25 26 27 28 29 30 31 32 33 34 35 36 37 38 39 40 41 42 43 44 45 46 47 48 49 50
507
ASUS43 KBIS 241902
RWRND

NORTH DAKOTA REGIONAL WEATHER ROUNDUP
NATIONAL WEATHER SERVICE BISMARCK ND
200 PM CDT TUE MAY 24 2016

NOTE: "FAIR" INDICATES FEW OR NO CLOUDS BELOW 12,000 FEET WITH NO
SIGNIFICANT WEATHER AND/OR OBSTRUCTIONS TO VISIBILITY.


NDZ001>003-009>011-017-242000-
NORTHWEST NORTH DAKOTA

CITY           SKY/WX    TMP DP  RH WIND       PRES   REMARKS
WILLISTON      PTSUNNY   68  39  34 SW15G23   29.89S
MINOT          MOSUNNY   74  38  27 S8        29.88S
$$

NDZ018>021-031>035-040>046-242000-
SOUTHWEST NORTH DAKOTA

CITY           SKY/WX    TMP DP  RH WIND       PRES   REMARKS
BISMARCK       SUNNY     74  41  30 VRB3      29.89S
DICKINSON      PTSUNNY   66  36  32 NW6       29.89F
GARRISON         N/A     70  42  36 SW9G17    29.90S
HETTINGER ARPT SUNNY     71  40  32 S12       29.91F
$$

NDZ004>008-012>016-024-026-027-054-242000-
NORTHEAST NORTH DAKOTA

CITY           SKY/WX    TMP DP  RH WIND       PRES   REMARKS
GRAND FORKS    MOSUNNY   76  51  41 SW8       29.86S
DEVILS LAKE    SUNNY     73  45  36 CALM      29.89S
$$

NDZ022-023-025-028>030-036>039-047>053-242000-
SOUTHEAST NORTH DAKOTA

CITY           SKY/WX    TMP DP  RH WIND       PRES   REMARKS
FARGO          SUNNY     81  43  26 N3        29.84S
JAMESTOWN      SUNNY     75  49  39 S6        29.88S
$$





USA.gov is the U.S. government's official web portal to all federal, state and local government web resources and services.